EW5967 Weather Reports


Display with metric or nautical units.
time (UTC)temp
F
wind
direction
speed
MPH
gust
MPH
rain 1hr
in
rain 24hr
in
rain mn
in
humidity
%
barometer
mb
20260904151040 75 160 1.0 6.0 0.00 0.00 0.00 32 1005.8
20260904150543 74 134 0.0 2.0 0.00 0.00 0.00 32 1005.7
20260904150040 74 134 0.0 3.0 0.00 0.00 0.00 32 1005.8
20260904145540 73 134 0.0 4.0 0.00 0.00 0.00 33 1005.7
20260904145040 73 147 1.0 5.0 0.00 0.00 0.00 34 1005.6
20260904144539 73 176 1.0 4.0 0.00 0.00 0.00 34 1005.7
20260904144040 73 190 0.0 4.0 0.00 0.00 0.00 34 1005.6
20260904143541 73 194 0.0 4.0 0.00 0.00 0.00 34 1005.5
20260904143037 73 194 0.0 1.0 0.00 0.00 0.00 34 1005.5
20260904142538 72 194 0.0 1.0 0.00 0.00 0.00 34 1005.4
20260904142036 72 194 0.0 1.0 0.00 0.00 0.00 35 1005.4
20260904141558 71 194 0.0 1.0 0.00 0.00 0.00 35 1005.4
20260904141035 71 194 0.0 1.0 0.00 0.00 0.00 35 1005.3
20260904140535 71 194 0.0 0.0 0.00 0.00 0.00 36 1005.4
20260904140034 71 194 0.0 1.0 0.00 0.00 0.00 36 1005.2
20260904135536 71 194 0.0 1.0 0.00 0.00 0.00 36 1005.2
20260904135034 70 194 0.0 0.0 0.00 0.00 0.00 37 1005.2
20260904134533 70 194 0.0 0.0 0.00 0.00 0.00 36 1005.1
20260904134032 69 194 0.0 2.0 0.00 0.00 0.00 37 1005.0
20260904133531 69 194 0.0 2.0 0.00 0.00 0.00 37 1005.0
20260904133031 69 194 0.0 1.0 0.00 0.00 0.00 37 1004.9
20260904132530 69 194 0.0 1.0 0.00 0.00 0.00 37 1004.8
20260904132029 69 194 0.0 1.0 0.00 0.00 0.00 37 1004.8
20260904131528 69 194 0.0 2.0 0.00 0.00 0.00 36 1004.7
20260904131028 69 194 0.0 2.0 0.00 0.00 0.00 36 1004.7
20260904130526 70 194 0.0 3.0 0.00 0.00 0.00 36 1004.6
20260904130026 70 194 0.0 3.0 0.00 0.00 0.00 36 1004.6
20260904125526 70 201 0.0 2.0 0.00 0.00 0.00 35 1004.5
20260904125025 70 201 0.0 4.0 0.00 0.00 0.00 35 1004.3
20260904124524 70 206 2.0 4.0 0.00 0.00 0.00 34 1004.3
20260904124026 69 140 0.0 1.0 0.00 0.00 0.00 36 1004.2
20260904123526 69 140 0.0 1.0 0.00 0.00 0.00 36 1004.1
20260904123022 69 140 0.0 2.0 0.00 0.00 0.00 36 1004.1
20260904122520 69 140 0.0 2.0 0.00 0.00 0.00 36 1004.0
20260904122020 70 141 0.0 3.0 0.00 0.00 0.00 35 1003.9
20260904121528 70 141 0.0 3.0 0.00 0.00 0.00 35 1003.9
20260904121020 70 141 0.0 1.0 0.00 0.00 0.00 35 1004.0
20260904120518 70 141 0.0 3.0 0.00 0.00 0.00 34 1004.0
20260904120016 71 141 0.0 3.0 0.00 0.00 0.00 34 1003.9
20260904115516 71 144 0.0 3.0 0.00 0.00 0.00 33 1003.9
20260904115015 71 145 0.0 5.0 0.00 0.00 0.00 32 1003.8
20260904114515 71 132 1.0 5.0 0.00 0.00 0.00 32 1003.8
20260904114015 71 196 0.0 0.0 0.00 0.00 0.00 33 1003.8
20260904113515 71 196 0.0 1.0 0.00 0.00 0.00 33 1003.7
20260904113028 71 196 0.0 2.0 0.00 0.00 0.00 33 1003.8
20260904112515 71 196 0.0 1.0 0.00 0.00 0.00 32 1003.7
20260904112010 72 196 0.0 1.0 0.00 0.00 0.00 31 1003.7
20260904111520 72 196 0.0 2.0 0.00 0.00 0.00 31 1003.7
20260904111010 72 196 0.0 2.0 0.00 0.00 0.00 30 1003.6
20260904110507 73 196 0.0 2.0 0.00 0.00 0.00 30 1003.6
20260904110006 74 198 0.0 0.0 0.00 0.00 0.00 29 1003.6
20260904105503 74 198 0.0 1.0 0.00 0.00 0.00 27 1003.5
20260904105003 75 198 0.0 5.0 0.00 0.00 0.00 27 1003.5
20260904104503 75 182 0.0 5.0 0.00 0.00 0.00 27 1003.5
20260904104001 75 194 3.0 5.0 0.00 0.00 0.00 27 1003.4
20260904103501 75 202 1.0 5.0 0.00 0.00 0.00 27 1003.3
20260904103105 75 206 1.0 4.0 0.00 0.00 0.00 27 1003.3
20260904102600 74 207 1.0 4.0 0.00 0.00 0.00 27 1003.2
20260904102100 75 206 0.0 4.0 0.00 0.00 0.00 27 1003.2
20260904101559 75 202 0.0 5.0 0.00 0.00 0.00 27 1003.2
20260904101057 76 196 1.0 6.0 0.00 0.00 0.00 26 1003.1
20260904100557 76 197 1.0 7.0 0.00 0.00 0.00 26 1003.2
20260904100105 76 204 2.0 7.0 0.00 0.00 0.00 26 1003.2
20260904095556 76 190 2.0 7.0 0.00 0.00 0.00 26 1003.2
20260904095055 76 207 2.0 6.0 0.00 0.00 0.00 26 1003.2
20260904094556 76 207 1.0 6.0 0.00 0.00 0.00 26 1003.1
20260904094057 76 212 1.0 7.0 0.00 0.00 0.00 26 1003.0
20260904093558 76 198 2.0 7.0 0.00 0.00 0.00 26 1003.0
20260904093056 76 191 2.0 6.0 0.00 0.00 0.00 25 1003.0
20260904092552 76 221 2.0 7.0 0.00 0.00 0.00 24 1003.0
20260904092051 77 229 3.0 8.0 0.00 0.00 0.00 24 1003.0
20260904091551 77 250 3.0 9.0 0.00 0.00 0.00 24 1003.0
20260904091050 77 244 4.0 10.0 0.00 0.00 0.00 24 1003.0
20260904090549 77 245 4.0 10.0 0.00 0.00 0.00 24 1003.0
20260904090053 77 223 4.0 10.0 0.00 0.00 0.00 24 1002.9
20260904085550 77 237 4.0 10.0 0.00 0.00 0.00 24 1003.0
20260904085053 77 221 3.0 10.0 0.00 0.00 0.00 24 1003.1
20260904084549 77 232 4.0 10.0 0.00 0.00 0.00 24 1003.1
20260904084048 77 252 4.0 9.0 0.00 0.00 0.00 24 1003.1
20260904083548 77 229 4.0 9.0 0.00 0.00 0.00 24 1003.1
20260904083048 77 217 4.0 7.0 0.00 0.00 0.00 24 1003.1
20260904082549 77 221 4.0 8.0 0.00 0.00 0.00 24 1003.2
20260904082046 77 223 3.0 8.0 0.00 0.00 0.00 24 1003.2
20260904081549 77 227 4.0 8.0 0.00 0.00 0.00 24 1003.2
20260904081047 77 238 4.0 9.0 0.00 0.00 0.00 23 1003.2
20260904080546 77 223 1.0 8.0 0.00 0.00 0.00 24 1003.3
20260904080051 77 208 3.0 9.0 0.00 0.00 0.00 23 1003.3
20260904075544 77 211 2.0 10.0 0.00 0.00 0.00 23 1003.2
20260904075043 78 225 3.0 10.0 0.00 0.00 0.00 22 1003.3
20260904074543 77 209 4.0 9.0 0.00 0.00 0.00 23 1003.2
20260904074043 77 246 4.0 9.0 0.00 0.00 0.00 23 1003.2
20260904073542 77 200 5.0 10.0 0.00 0.00 0.00 23 1003.2
20260904073048 78 215 5.0 13.0 0.00 0.00 0.00 22 1003.1
20260904072540 78 232 4.0 15.0 0.00 0.00 0.00 22 1003.0
20260904072039 78 213 6.0 13.0 0.00 0.00 0.00 22 1003.0
20260904071538 78 224 4.0 9.0 0.00 0.00 0.00 21 1003.1
20260904071041 78 221 3.0 9.0 0.00 0.00 0.00 21 1003.1
20260904070540 78 223 2.0 8.0 0.00 0.00 0.00 20 1003.2
20260904070038 78 188 1.0 7.0 0.00 0.00 0.00 19 1003.1
20260904065536 78 210 1.0 7.0 0.00 0.00 0.00 19 1003.2
20260904065035 79 209 1.0 6.0 0.00 0.00 0.00 18 1003.3
20260904064534 79 195 2.0 6.0 0.00 0.00 0.00 18 1003.3
20260904064034 79 195 2.0 6.0 0.00 0.00 0.00 17 1003.3
20260904063534 79 194 1.0 4.0 0.00 0.00 0.00 17 1003.2
20260904063033 79 189 1.0 5.0 0.00 0.00 0.00 17 1003.2
20260904062534 79 190 0.0 6.0 0.00 0.00 0.00 16 1003.2
20260904062034 78 213 2.0 9.0 0.00 0.00 0.00 16 1003.2
20260904061537 78 162 2.0 9.0 0.00 0.00 0.00 16 1003.2
20260904061033 78 178 1.0 6.0 0.00 0.00 0.00 16 1003.2
20260904060533 79 166 2.0 7.0 0.00 0.00 0.00 16 1003.2
20260904060033 79 161 2.0 8.0 0.00 0.00 0.00 16 1003.2
20260904055532 79 161 2.0 10.0 0.00 0.00 0.00 16 1003.1
20260904055032 79 167 5.0 10.0 0.00 0.00 0.00 16 1003.0
20260904054535 79 169 3.0 8.0 0.00 0.00 0.00 16 1003.2
20260904054033 79 184 4.0 8.0 0.00 0.00 0.00 16 1003.1
20260904053534 79 157 2.0 10.0 0.00 0.00 0.00 17 1003.2
20260904053033 79 181 1.0 9.0 0.00 0.00 0.00 16 1003.2
20260904052531 80 162 1.0 9.0 0.00 0.00 0.00 16 1003.2
20260904052031 80 144 2.0 7.0 0.00 0.00 0.00 16 1003.2
20260904051534 81 190 2.0 15.0 0.00 0.00 0.00 16 1003.2
20260904051030 81 172 6.0 15.0 0.00 0.00 0.00 15 1003.2
20260904050530 81 164 3.0 9.0 0.00 0.00 0.00 15 1003.3
20260904050029 82 173 3.0 9.0 0.00 0.00 0.00 15 1003.3
20260904045532 82 192 2.0 13.0 0.00 0.00 0.00 15 1003.3
20260904045032 82 181 7.0 13.0 0.00 0.00 0.00 15 1003.3
20260904044540 82 191 5.0 10.0 0.00 0.00 0.00 15 1003.3
20260904044030 82 171 4.0 10.0 0.00 0.00 0.00 15 1003.3
20260904043533 82 208 4.0 10.0 0.00 0.00 0.00 16 1003.3
20260904043028 82 213 5.0 11.0 0.00 0.00 0.00 16 1003.3
20260904042528 81 178 1.0 7.0 0.00 0.00 0.00 16 1003.3
20260904042027 82 214 1.0 7.0 0.00 0.00 0.00 16 1003.2
20260904041535 82 204 2.0 7.0 0.00 0.00 0.00 16 1003.2
20260904041027 82 189 2.0 7.0 0.00 0.00 0.00 16 1003.3
20260904040529 82 181 3.0 9.0 0.00 0.00 0.00 16 1003.4
20260904040028 82 196 2.0 9.0 0.00 0.00 0.00 16 1003.4
20260904035528 82 186 2.0 8.0 0.00 0.00 0.00 16 1003.3
20260904035027 82 194 4.0 8.0 0.00 0.00 0.00 16 1003.2
20260904034527 82 224 1.0 7.0 0.00 0.00 0.00 16 1003.2
20260904034027 82 192 2.0 10.0 0.00 0.00 0.00 16 1003.2
20260904033530 82 192 3.0 10.0 0.00 0.00 0.00 16 1003.1
20260904033027 82 178 1.0 7.0 0.00 0.00 0.00 16 1003.0
20260904032526 82 190 2.0 9.0 0.00 0.00 0.00 16 1003.0
20260904032026 82 200 3.0 9.0 0.00 0.00 0.00 16 1003.0
20260904031526 82 198 0.0 6.0 0.00 0.00 0.00 15 1003.0
20260904031027 82 195 2.0 8.0 0.00 0.00 0.00 15 1002.9
20260904030525 82 193 3.0 8.0 0.00 0.00 0.00 15 1002.8
20260904030028 82 216 3.0 9.0 0.00 0.00 0.00 15 1002.8
20260904025525 82 206 2.0 9.0 0.00 0.00 0.00 15 1002.8
20260904025025 82 202 2.0 9.0 0.00 0.00 0.00 15 1002.7
20260904024524 82 205 1.0 15.0 0.00 0.00 0.00 15 1002.7
20260904024027 83 199 2.0 15.0 0.00 0.00 0.00 15 1002.7
20260904023528 83 217 1.0 12.0 0.00 0.00 0.00 15 1002.6
20260904023023 83 220 3.0 9.0 0.00 0.00 0.00 14 1002.5
20260904022526 83 219 3.0 11.0 0.00 0.00 0.00 14 1002.5
20260904022027 83 195 3.0 11.0 0.00 0.00 0.00 14 1002.5
20260904021523 83 207 3.0 8.0 0.00 0.00 0.00 14 1002.5
20260904021023 83 213 2.0 10.0 0.00 0.00 0.00 14 1002.5
20260904020524 84 221 3.0 10.0 0.00 0.00 0.00 14 1002.6
20260904020037 84 237 2.0 8.0 0.00 0.00 0.00 14 1002.6
20260904015522 84 234 3.0 8.0 0.00 0.00 0.00 14 1002.6
20260904015022 84 213 4.0 10.0 0.00 0.00 0.00 14 1002.5
20260904014522 84 221 4.0 10.0 0.00 0.00 0.00 14 1002.6
20260904014024 85 195 2.0 8.0 0.00 0.00 0.00 14 1002.5
20260904013522 85 223 3.0 11.0 0.00 0.00 0.00 14 1002.5
20260904013025 85 230 5.0 11.0 0.00 0.00 0.00 13 1002.5
20260904012521 86 197 4.0 11.0 0.00 0.00 0.00 13 1002.5
20260904012021 86 201 2.0 11.0 0.00 0.00 0.00 14 1002.5
20260904011520 86 208 4.0 10.0 0.00 0.00 0.00 13 1002.5
20260904011020 86 203 5.0 10.0 0.00 0.00 0.00 13 1002.6
20260904010520 86 246 5.0 10.0 0.00 0.00 0.00 13 1002.5
20260904010021 86 183 6.0 14.0 0.00 0.00 0.00 13 1002.6
20260904005520 86 203 7.0 15.0 0.00 0.00 0.00 13 1002.6
20260904005020 86 197 4.0 14.0 0.00 0.00 0.00 13 1002.7
20260904004519 87 201 5.0 14.0 0.00 0.00 0.00 13 1002.6
20260904004019 87 202 5.0 12.0 0.00 0.00 0.00 13 1002.7
20260904003519 87 193 7.0 12.0 0.00 0.00 0.00 12 1002.7
20260904003017 87 200 6.0 13.0 0.00 0.00 0.00 12 1002.7
20260904002517 87 192 6.0 11.0 0.00 0.00 0.00 13 1002.8
20260904002017 87 242 8.0 17.0 0.00 0.00 0.00 12 1002.8
20260904001517 87 192 9.0 17.0 0.00 0.00 0.00 12 1002.9
20260904001016 87 184 6.0 13.0 0.00 0.00 0.00 12 1002.9
20260904000516 87 200 7.0 13.0 0.00 0.00 0.00 13 1003.0
20260904000014 87 202 7.0 19.0 0.00 0.00 0.00 13 1003.1
20260903235514 87 209 7.0 19.0 0.00 0.00 0.00 13 1003.1
20260903235018 88 188 6.0 19.0 0.00 0.00 0.00 13 1003.2
20260903234514 88 277 4.0 12.0 0.00 0.00 0.00 13 1003.0
20260903234014 88 194 8.0 15.0 0.00 0.00 0.00 13 1003.2
20260903233514 88 215 7.0 15.0 0.00 0.00 0.00 13 1003.2
20260903233013 88 240 6.0 16.0 0.00 0.00 0.00 13 1003.2
20260903232514 88 179 8.0 16.0 0.00 0.00 0.00 13 1003.2
20260903232013 88 206 6.0 10.0 0.00 0.00 0.00 13 1003.2
20260903231512 89 269 5.0 13.0 0.00 0.00 0.00 13 1003.3
20260903231011 89 210 6.0 13.0 0.00 0.00 0.00 13 1003.3
20260903230511 89 188 5.0 14.0 0.00 0.00 0.00 13 1003.3
20260903230010 89 238 6.0 14.0 0.00 0.00 0.00 13 1003.4
20260903225511 89 225 5.0 12.0 0.00 0.00 0.00 13 1003.5
20260903225010 89 209 3.0 15.0 0.00 0.00 0.00 13 1003.4
20260903224509 89 233 5.0 15.0 0.00 0.00 0.00 13 1003.6
20260903224008 89 210 6.0 14.0 0.00 0.00 0.00 13 1003.6
20260903223510 89 217 5.0 14.0 0.00 0.00 0.00 13 1003.6
20260903223010 89 254 5.0 13.0 0.00 0.00 0.00 13 1003.7
20260903222506 89 224 5.0 13.0 0.00 0.00 0.00 13 1003.8
20260903222007 89 225 5.0 11.0 0.00 0.00 0.00 13 1003.9
20260903221507 89 243 6.0 14.0 0.00 0.00 0.00 13 1003.8
20260903221005 89 202 5.0 19.0 0.00 0.00 0.00 13 1003.9
20260903220505 89 234 5.0 19.0 0.00 0.00 0.00 13 1003.9
20260903220006 89 247 5.0 14.0 0.00 0.00 0.00 13 1003.9
20260903215505 89 246 6.0 14.0 0.00 0.00 0.00 13 1004.1
20260903215006 89 237 5.0 14.0 0.00 0.00 0.00 13 1004.0
20260903214504 89 233 4.0 14.0 0.00 0.00 0.00 13 1004.1
20260903214003 90 204 3.0 11.0 0.00 0.00 0.00 13 1004.1
20260903213503 90 234 4.0 12.0 0.00 0.00 0.00 13 1004.2
20260903213100 90 259 3.0 12.0 0.00 0.00 0.00 13 1004.3
20260903212600 89 150 6.0 11.0 0.00 0.00 0.00 13 1004.3
20260903212100 89 184 5.0 14.0 0.00 0.00 0.00 13 1004.3
20260903211615 89 255 5.0 14.0 0.00 0.00 0.00 13 1004.3
20260903211059 89 254 4.0 12.0 0.00 0.00 0.00 13 1004.3
20260903210559 89 230 6.0 12.0 0.00 0.00 0.00 13 1004.4
20260903210058 89 236 5.0 10.0 0.00 0.00 0.00 13 1004.4
20260903205557 89 211 5.0 10.0 0.00 0.00 0.00 13 1004.4
20260903205056 88 237 6.0 12.0 0.00 0.00 0.00 13 1004.3
20260903204602 89 255 6.0 14.0 0.00 0.00 0.00 13 1004.5
20260903204056 88 194 4.0 15.0 0.00 0.00 0.00 14 1004.5
20260903203554 89 188 4.0 12.0 0.00 0.00 0.00 13 1004.5
20260903203054 88 210 6.0 12.0 0.00 0.00 0.00 13 1004.6
20260903202554 89 207 5.0 14.0 0.00 0.00 0.00 13 1004.7
20260903202053 89 261 4.0 18.0 0.00 0.00 0.00 14 1004.6
20260903201552 88 219 7.0 18.0 0.00 0.00 0.00 14 1004.8
20260903201052 88 183 5.0 14.0 0.00 0.00 0.00 14 1004.9
20260903200550 88 239 5.0 12.0 0.00 0.00 0.00 13 1005.0
20260903200050 88 239 3.0 12.0 0.00 0.00 0.00 14 1005.0
20260903195549 87 188 3.0 15.0 0.00 0.00 0.00 14 1005.0
20260903195050 87 190 6.0 14.0 0.00 0.00 0.00 14 1005.1
20260903194552 87 197 5.0 14.0 0.00 0.00 0.00 13 1005.1
20260903194046 86 144 5.0 14.0 0.00 0.00 0.00 15 1005.3
20260903193546 87 138 7.0 17.0 0.00 0.00 0.00 15 1005.4
20260903193046 87 200 5.0 17.0 0.00 0.00 0.00 14 1005.3
20260903192545 86 215 3.0 14.0 0.00 0.00 0.00 15 1005.5
20260903192046 86 182 4.0 14.0 0.00 0.00 0.00 14 1005.5
20260903191556 86 176 5.0 14.0 0.00 0.00 0.00 14 1005.6
20260903191045 87 182 5.0 11.0 0.00 0.00 0.00 14 1005.6
20260903190546 87 184 4.0 11.0 0.00 0.00 0.00 14 1005.6
20260903190046 87 202 2.0 10.0 0.00 0.00 0.00 14 1005.6
20260903185544 87 206 5.0 10.0 0.00 0.00 0.00 14 1005.7
20260903185044 86 173 3.0 10.0 0.00 0.00 0.00 14 1005.8
20260903184543 86 183 5.0 10.0 0.00 0.00 0.00 14 1005.9
20260903184041 86 206 1.0 8.0 0.00 0.00 0.00 15 1005.9
20260903183541 86 175 2.0 6.0 0.00 0.00 0.00 14 1006.0
20260903183100 85 239 1.0 6.0 0.00 0.00 0.00 15 1006.1
20260903182538 84 143 1.0 13.0 0.00 0.00 0.00 16 1006.2
20260903182037 84 134 2.0 16.0 0.00 0.00 0.00 16 1006.2
20260903181535 83 80 7.0 16.0 0.00 0.00 0.00 17 1006.1
20260903181040 83 150 3.0 11.0 0.00 0.00 0.00 17 1006.3
20260903180534 82 61 2.0 11.0 0.00 0.00 0.00 17 1006.3
20260903180037 82 101 2.0 9.0 0.00 0.00 0.00 17 1006.5
20260903175534 82 144 1.0 5.0 0.00 0.00 0.00 17 1006.5
20260903175036 82 88 1.0 4.0 0.00 0.00 0.00 16 1006.4
20260903174534 82 67 0.0 7.0 0.00 0.00 0.00 16 1006.4
20260903174032 82 130 3.0 7.0 0.00 0.00 0.00 17 1006.5
20260903173533 82 103 0.0 4.0 0.00 0.00 0.00 17 1006.6
20260903173031 82 91 1.0 8.0 0.00 0.00 0.00 17 1006.6
20260903172532 80 154 0.0 10.0 0.00 0.00 0.00 17 1006.5
20260903172030 80 133 2.0 10.0 0.00 0.00 0.00 17 1006.5
20260903171529 80 148 2.0 9.0 0.00 0.00 0.00 18 1006.5
20260903171029 80 138 4.0 10.0 0.00 0.00 0.00 19 1006.6
20260903170529 79 175 2.0 10.0 0.00 0.00 0.00 19 1006.6
20260903170027 79 171 3.0 9.0 0.00 0.00 0.00 18 1006.6
20260903165528 79 138 2.0 9.0 0.00 0.00 0.00 19 1006.6
20260903165026 79 97 3.0 8.0 0.00 0.00 0.00 19 1006.6
20260903164525 79 175 1.0 5.0 0.00 0.00 0.00 21 1006.5
20260903164024 78 41 0.0 4.0 0.00 0.00 0.00 22 1006.5
20260903163523 78 49 1.0 3.0 0.00 0.00 0.00 21 1006.5
20260903163021 77 43 0.0 4.0 0.00 0.00 0.00 22 1006.5
20260903162522 77 35 1.0 3.0 0.00 0.00 0.00 22 1006.5
20260903162021 76 32 0.0 5.0 0.00 0.00 0.00 23 1006.6
20260903161531 75 26 1.0 6.0 0.00 0.00 0.00 23 1006.6
20260903161020 75 39 2.0 6.0 0.00 0.00 0.00 24 1006.6
20260903160521 76 40 2.0 6.0 0.00 0.00 0.00 23 1006.6
20260903160022 76 84 1.0 5.0 0.00 0.00 0.00 22 1006.5
20260903155524 75 71 2.0 5.0 0.00 0.00 0.00 24 1006.5
20260903155024 75 47 1.0 5.0 0.00 0.00 0.00 24 1006.5
20260903154522 76 53 2.0 7.0 0.00 0.00 0.00 23 1006.5
20260903154025 76 88 1.0 7.0 0.00 0.00 0.00 22 1006.4
20260903153519 75 79 1.0 4.0 0.00 0.00 0.00 22 1006.5
20260903153018 76 92 0.0 4.0 0.00 0.00 0.00 23 1006.5
20260903152518 75 202 0.0 2.0 0.00 0.00 0.00 23 1006.5
20260903152021 75 202 0.0 2.0 0.00 0.00 0.00 23 1006.4
20260903151517 74 202 0.0 2.0 0.00 0.00 0.00 24 1006.4